Location: Bauerbach
(50.4985°N, 10.3912°E)
Time: 02:51:16
(UTC+00:00)

ACS3 Solar Sail - Visible Passes

Search period start: 09 March 2026 00:00
Search period end: 19 March 2026 00:00
Orbit: 887 x 973 km, 97.2° (Epoch: 8 March)

Date Brightness Start Highest point End Pass type
(mag) Time Alt. Az. Time Alt. Az. Time Alt. Az.
9 Mar 3.8 00:23:10 10° NNE 00:25:04 20° NE 00:25:04 20° NE visible
9 Mar 3.0 02:05:43 10° N 02:08:46 29° NNW 02:08:46 29° NNW visible
10 Mar 3.6 00:34:29 10° NNE 00:36:45 23° NE 00:36:45 23° NE visible
10 Mar 3.0 02:17:16 10° N 02:20:26 28° NNW 02:20:26 28° NNW visible
11 Mar 3.4 00:45:46 10° NNE 00:48:21 27° NNE 00:48:21 27° NNE visible
11 Mar 3.0 02:28:47 10° N 02:32:02 26° NW 02:32:02 26° NW visible
12 Mar 3.2 00:57:01 10° NNE 00:59:54 31° NNE 00:59:54 31° NNE visible
12 Mar 3.1 02:40:16 10° N 02:43:35 23° NW 02:43:35 23° NW visible
12 Mar 4.3 23:27:23 10° NE 23:27:42 11° NE 23:27:42 11° NE visible
13 Mar 3.0 01:08:13 10° NNE 01:11:22 34° NNE 01:11:22 34° NNE visible
13 Mar 3.2 02:51:43 10° N 02:55:03 20° NW 02:55:03 20° NW visible
13 Mar 4.1 23:38:00 10° NE 23:39:07 13° NE 23:39:07 13° NE visible
14 Mar 2.8 01:19:22 10° NNE 01:22:47 38° N 01:22:47 38° N visible
14 Mar 3.3 03:03:11 10° NNW 03:06:27 18° NW 03:06:27 18° NW visible
14 Mar 3.9 23:48:43 10° NE 23:50:27 16° NE 23:50:27 16° NE visible
15 Mar 2.7 01:30:30 10° N 01:34:07 40° N 01:34:07 40° N visible
15 Mar 3.4 03:14:39 10° NNW 03:17:46 15° NW 03:17:46 15° NW visible
15 Mar 3.8 23:59:28 10° NNE 00:01:42 20° NE 00:01:42 20° NE visible
16 Mar 2.6 01:41:34 10° N 01:45:22 40° NNW 01:45:22 40° NNW visible
16 Mar 3.6 03:26:13 10° NNW 03:28:36 13° NW 03:29:02 13° NW visible
17 Mar 3.5 00:10:14 10° NNE 00:12:55 24° NE 00:12:55 24° NE visible
17 Mar 2.6 01:52:36 10° N 01:56:34 38° NNW 01:56:34 38° NNW visible
17 Mar 3.7 03:38:11 10° NW 03:39:19 11° NW 03:40:13 10° WNW visible
18 Mar 3.3 00:20:59 10° NNE 00:24:03 28° NE 00:24:03 28° NE visible
18 Mar 2.6 02:03:35 10° N 02:07:42 36° NW 02:07:42 36° NW visible
